Location: Unspecified
(49.2170°N, 0.0000°E)
Time: 14:49:39
(UTC+00:00)

Tiros 1 despin weight - Pass Details

Date: 27 January 2021
Orbit: 593 x 642 km, 48.2° (Epoch: 06 March)

Event Time Altitude Azimuth Distance (km) Brightness Sun altitude
Rises 12:39:27 0° 210° (SSW) 2,901 ? 22.2°
Reaches altitude 10° 12:42:10 10° 195° (SSW) 1,989 ? 22.2°
Maximum altitude 12:45:42 22° 144° (SE) 1,352 ? 22.1°
Drops below altitude 10° 12:49:11 10° 94° (E) 1,972 ? 22.0°
Sets 12:51:52 0° 79° (E) 2,870 ? 21.9°
